McConnell AFB, KS

5:22 AM CDT on April 27, 2017 (GMT -0500)
McConnell Air Force Base

Weather History for KIAB - November, 2013

Change the Weather History Date:

Sunday, November 24, 2013

  Actual Average Record
Temperature  
Mean Temperature 22 °F -  
Max Temperature 27 °F 49 °F 65 °F (2011)
Min Temperature 18 °F 32 °F 15 °F (2003)
Degree Days  
Heating Degree Days 42    
Moisture  
Dew Point 10 °F    
Average Humidity 58    
Maximum Humidity 75    
Minimum Humidity 43    
Precipitation  
Precipitation 0.00 in - - ()
Sea Level Pressure  
Sea Level Pressure 30.58 in    
Wind  
Wind Speed 8 mph (SE)    
Max Wind Speed 13 mph    
Max Gust Speed -    
Visibility 10 miles    
Events      
Averages and records for this station are not official NWS values.
T = Trace of Precipitation, MM = Missing Value Source: NWS Daily Summary

Daily Weather History Graph

Daily Weather History Graph

Search for Another Location

Airport or City:

Trip Planner

Search our weather history database for the weather conditions in past years. The results will help you decide how hot, cold, wet, or windy it might be!

Date:

Astronomy

Nov. 24, 2013 Rise Set
Actual Time 7:18 AM CST 5:12 PM CST
Civil Twilight 6:50 AM CST 5:41 PM CST
Nautical Twilight 6:18 AM CST 6:13 PM CST
Astronomical Twilight 5:46 AM CST 6:44 PM CST
Moon 11:36 PM CST (11/24) 12:10 PM CST (11/24)
Length of Visible Light 10h 51m
Length of Day
9h 54m
Waning Gibbous, 60% of the Moon is Illuminated
Nov 24
Waning Gibbous
Nov 25
Last Quarter
Dec 2
New
Dec 9
First Quarter
Dec 17
Full

Hourly Weather History & Observations

Time (CST) Temp. Windchill Dew Point Humidity Pressure Visibility Wind Dir Wind Speed Gust Speed Precip Events Conditions
12:58 AM 19.6 °F 8.1 °F 10.0 °F 66% 30.74 in 10.0 mi NE 10.4 mph - N/A   Clear
1:58 AM 18.5 °F 11.7 °F 10.2 °F 70% 30.76 in 10.0 mi NE 4.6 mph - N/A   Clear
2:58 AM 18.7 °F 10.6 °F 10.2 °F 70% 30.76 in 10.0 mi NE 5.8 mph - N/A   Clear
3:58 AM 18.0 °F 9.8 °F 11.3 °F 75% 30.77 in 10.0 mi ENE 5.8 mph - N/A   Clear
4:58 AM 18.3 °F 9.1 °F 11.1 °F 73% 30.75 in 10.0 mi ENE 6.9 mph - N/A   Clear
5:58 AM 18.3 °F 7.3 °F 10.6 °F 72% 30.73 in 10.0 mi East 9.2 mph - N/A   Clear
6:58 AM 18.1 °F 8.9 °F 10.9 °F 73% 30.73 in 10.0 mi East 6.9 mph - N/A   Clear
7:58 AM 18.5 °F 9.3 °F 10.9 °F 72% 30.71 in 10.0 mi East 6.9 mph - N/A   Clear
8:58 AM 19.0 °F 11.1 °F 10.6 °F 70% 30.71 in 10.0 mi ESE 5.8 mph - N/A   Clear
9:58 AM 20.3 °F 13.8 °F 10.2 °F 65% 30.69 in 10.0 mi East 4.6 mph - N/A   Clear
10:58 AM 21.9 °F 14.5 °F 9.7 °F 59% 30.66 in 10.0 mi ESE 5.8 mph - N/A   Clear
11:58 AM 23.7 °F 16.6 °F 8.8 °F 53% 30.64 in 10.0 mi South 5.8 mph - N/A   Clear
12:58 PM 24.3 °F 19.9 °F 9.0 °F 52% 30.59 in 10.0 mi South 3.5 mph - N/A   Clear
1:58 PM 25.7 °F 21.5 °F 8.6 °F 48% 30.55 in 10.0 mi South 3.5 mph - N/A   Partly Cloudy
2:58 PM 27.1 °F 18.2 °F 7.3 °F 43% 30.54 in 10.0 mi South 9.2 mph - N/A   Mostly Cloudy
3:58 PM 27.1 °F 18.9 °F 7.5 °F 44% 30.52 in 10.0 mi SE 8.1 mph - N/A   Overcast
4:58 PM 26.8 °F 17.1 °F 10.2 °F 50% 30.50 in 10.0 mi SE 10.4 mph - N/A   Overcast
5:58 PM 26.6 °F 16.8 °F 11.8 °F 54% 30.46 in 10.0 mi ESE 10.4 mph - N/A   Overcast
6:58 PM 27.0 °F 17.3 °F 11.7 °F 53% 30.44 in 10.0 mi SSE 10.4 mph - N/A   Overcast
7:58 PM 26.8 °F 17.1 °F 11.8 °F 53% 30.41 in 10.0 mi SSE 10.4 mph - N/A   Overcast
8:58 PM 26.6 °F 16.2 °F 10.6 °F 51% 30.39 in 10.0 mi South 11.5 mph - N/A   Overcast
9:03 PM 26.6 °F 17.5 °F 10.4 °F 51% 30.32 in 10.0 mi South 9.2 mph - N/A   Overcast
9:58 PM 26.6 °F 16.2 °F 8.6 °F 47% 30.38 in 10.0 mi South 11.5 mph - N/A   Overcast
10:58 PM 27.3 °F 16.6 °F 10.4 °F 49% 30.35 in 10.0 mi SSE 12.7 mph - N/A   Overcast
11:58 PM 27.7 °F 18.2 °F 9.1 °F 46% 30.35 in 10.0 mi South 10.4 mph - N/A   Overcast